• en Suisse
  • Liste des pays
  • À 7 jours
  • Température de l'eau
  • Carte satellitaire
  • Carte météo
  • Widgets météo
  • user-avatar
    Se connecter

    Météo par heure à Krasnyy Uryush

    Ce jour, 22 Juillet, Dimanche

    Heure Température Précipitation Vent Pression Humidité
    00:00 +14°C° 0 mm 4 m/s 748 mmHg 72%
    01:00 +13°C° 0 mm 4 m/s 748 mmHg 71%
    02:00 +13°C° 0 mm 4 m/s 748 mmHg 71%
    03:00 +12°C° 0 mm 4 m/s 749 mmHg 72%
    04:00 +11°C° 0 mm 3 m/s 748 mmHg 78%
    05:00 +12°C° 0 mm 3 m/s 749 mmHg 75%
    06:00 +13°C° 0 mm 4 m/s 749 mmHg 72%
    07:00 +14°C° 0 mm 5 m/s 749 mmHg 69%
    08:00 +16°C° 0 mm 5 m/s 749 mmHg 63%
    09:00 +17°C° 0 mm 5 m/s 749 mmHg 57%
    10:00 +19°C° 0 mm 6 m/s 749 mmHg 51%
    11:00 +20°C° 0 mm 6 m/s 749 mmHg 49%
    12:00 +21°C° 0 mm 5 m/s 749 mmHg 48%
    13:00 +21°C° 0 mm 5 m/s 749 mmHg 46%
    14:00 +22°C° 0 mm 5 m/s 749 mmHg 47%
    15:00 +22°C° 0 mm 5 m/s 749 mmHg 47%
    16:00 +22°C° 0 mm 4 m/s 749 mmHg 48%
    17:00 +21°C° 0 mm 4 m/s 749 mmHg 54%
    18:00 +20°C° 0 mm 3 m/s 749 mmHg 59%
    19:00 +19°C° 0 mm 3 m/s 749 mmHg 65%
    20:00 +17°C° 0 mm 3 m/s 750 mmHg 68%
    21:00 +16°C° 0 mm 3 m/s 750 mmHg 70%
    22:00 +13°C° 0 mm 3 m/s 750 mmHg 73%
    23:00 +13°C° 0 mm 2 m/s 750 mmHg 76%

    Demain, 23 Juillet, Lundi

    Heure Température Précipitation Vent Pression Humidité
    00:00 +12°C° 0 mm 2 m/s 751 mmHg 78%
    01:00 +12°C° 0 mm 2 m/s 751 mmHg 80%
    02:00 +10°C° 0 mm 2 m/s 751 mmHg 82%
    03:00 +10°C° 0 mm 2 m/s 751 mmHg 83%
    04:00 +10°C° 0 mm 1 m/s 752 mmHg 84%
    05:00 +12°C° 0 mm 2 m/s 752 mmHg 80%
    06:00 +13°C° 0 mm 2 m/s 752 mmHg 75%
    07:00 +15°C° 0 mm 2 m/s 752 mmHg 71%
    08:00 +17°C° 0 mm 2 m/s 752 mmHg 64%
    09:00 +19°C° 0 mm 2 m/s 752 mmHg 58%
    10:00 +21°C° 0 mm 2 m/s 752 mmHg 52%
    11:00 +23°C° 0 mm 2 m/s 752 mmHg 49%
    12:00 +24°C° 0 mm 2 m/s 751 mmHg 46%
    13:00 +25°C° 0 mm 2 m/s 751 mmHg 44%
    14:00 +25°C° 0 mm 2 m/s 751 mmHg 45%
    15:00 +26°C° 0 mm 2 m/s 751 mmHg 46%
    16:00 +26°C° 0 mm 2 m/s 751 mmHg 47%
    17:00 +25°C° 0 mm 2 m/s 751 mmHg 54%
    18:00 +24°C° 0 mm 2 m/s 750 mmHg 61%
    19:00 +23°C° 0 mm 1 m/s 750 mmHg 68%
    20:00 +22°C° 0 mm 1 m/s 750 mmHg 72%
    21:00 +20°C° 0 mm 1 m/s 751 mmHg 76%
    22:00 +18°C° 0 mm 1 m/s 751 mmHg 80%
    23:00 +18°C° 0 mm 1 m/s 751 mmHg 81%

    Après-demain, 24 Juillet, Mardi

    Heure Température Précipitation Vent Pression Humidité
    00:00 +16°C° 0 mm 1 m/s 751 mmHg 83%
    01:00 +16°C° 0 mm 1 m/s 751 mmHg 85%
    02:00 +15°C° 0 mm 1 m/s 751 mmHg 86%
    03:00 +15°C° 0 mm 1 m/s 751 mmHg 87%
    04:00 +15°C° 0 mm 1 m/s 751 mmHg 88%
    05:00 +16°C° 0 mm 1 m/s 752 mmHg 84%
    06:00 +19°C° 0 mm 1 m/s 752 mmHg 80%
    07:00 +20°C° 0 mm 1 m/s 752 mmHg 75%
    08:00 +22°C° 0 mm 1 m/s 752 mmHg 69%
    09:00 +24°C° 0 mm 2 m/s 752 mmHg 63%
    10:00 +26°C° 0 mm 2 m/s 752 mmHg 57%
    11:00 +27°C° 0 mm 3 m/s 752 mmHg 54%
    12:00 +28°C° 0 mm 3 m/s 752 mmHg 51%
    13:00 +29°C° 0 mm 3 m/s 752 mmHg 48%
    14:00 +29°C° 0 mm 3 m/s 751 mmHg 49%
    15:00 +29°C° 0 mm 3 m/s 751 mmHg 50%
    16:00 +29°C° 0 mm 3 m/s 751 mmHg 51%
    17:00 +28°C° 0 mm 3 m/s 751 mmHg 58%
    18:00 +27°C° 0 mm 3 m/s 751 mmHg 64%
    19:00 +26°C° 0 mm 2 m/s 751 mmHg 71%
    20:00 +24°C° 0 mm 2 m/s 751 mmHg 74%
    21:00 +21°C° 0 mm 2 m/s 752 mmHg 77%
    22:00 +20°C° 0 mm 2 m/s 752 mmHg 80%
    23:00 +19°C° 0 mm 2 m/s 752 mmHg 80%

    25 Juillet, Mercredi

    Heure Température Précipitation Vent Pression Humidité
    00:00 +19°C° 0 mm 2 m/s 752 mmHg 80%
    01:00 +18°C° 0 mm 2 m/s 752 mmHg 79%
    02:00 +18°C° 0 mm 2 m/s 752 mmHg 79%
    03:00 +18°C° 0 mm 2 m/s 752 mmHg 78%
    04:00 +17°C° 0 mm 2 m/s 753 mmHg 78%
    05:00 +18°C° 0 mm 2 m/s 753 mmHg 76%
    06:00 +20°C° 0 mm 2 m/s 753 mmHg 75%
    07:00 +21°C° 0 mm 2 m/s 753 mmHg 73%
    08:00 +24°C° 0 mm 2 m/s 753 mmHg 67%
    09:00 +26°C° 0 mm 2 m/s 753 mmHg 61%
    10:00 +28°C° 0 mm 2 m/s 753 mmHg 55%
    11:00 +29°C° 0 mm 2 m/s 753 mmHg 50%
    12:00 +30°C° 0 mm 2 m/s 753 mmHg 46%
    13:00 +31°C° 0 mm 2 m/s 753 mmHg 41%
    14:00 +31°C° 0 mm 2 m/s 753 mmHg 42%
    15:00 +31°C° 0 mm 2 m/s 753 mmHg 43%
    16:00 +31°C° 0 mm 2 m/s 753 mmHg 45%
    17:00 +29°C° 0 mm 2 m/s 753 mmHg 51%
    18:00 +28°C° 0 mm 2 m/s 753 mmHg 58%
    19:00 +27°C° 0 mm 1 m/s 753 mmHg 65%
    20:00 +25°C° 0 mm 1 m/s 753 mmHg 67%
    21:00 +23°C° 0 mm 1 m/s 753 mmHg 70%
    22:00 +22°C° 0 mm 1 m/s 754 mmHg 72%
    23:00 +21°C° 0 mm 1 m/s 754 mmHg 74%

    26 Juillet, Jeudi

    Heure Température Précipitation Vent Pression Humidité
    00:00 +21°C° 0 mm 1 m/s 754 mmHg 76%
    01:00 +20°C° 0 mm 1 m/s 754 mmHg 78%
    02:00 +20°C° 0 mm 1 m/s 754 mmHg 78%
    03:00 +20°C° 0 mm 1 m/s 754 mmHg 78%
    04:00 +18°C° 0 mm 0 m/s 754 mmHg 78%
    05:00 +19°C° 0 mm 0 m/s 755 mmHg 77%
    06:00 +20°C° 0 mm 0 m/s 755 mmHg 75%
    07:00 +21°C° 0 mm 0 m/s 755 mmHg 73%
    08:00 +25°C° 0 mm 1 m/s 755 mmHg 67%
    09:00 +27°C° 0 mm 1 m/s 755 mmHg 61%
    10:00 +29°C° 0 mm 1 m/s 755 mmHg 54%
    11:00 +29°C° 0 mm 1 m/s 755 mmHg 51%
    12:00 +30°C° 0 mm 1 m/s 754 mmHg 48%
    13:00 +31°C° 0 mm 2 m/s 754 mmHg 44%
    14:00 +31°C° 0 mm 2 m/s 754 mmHg 46%
    15:00 +31°C° 0 mm 2 m/s 754 mmHg 48%
    16:00 +30°C° 0 mm 2 m/s 754 mmHg 50%
    17:00 +29°C° 0 mm 2 m/s 754 mmHg 55%
    18:00 +28°C° 0 mm 2 m/s 754 mmHg 61%
    19:00 +27°C° 0 mm 2 m/s 754 mmHg 66%
    20:00 +25°C° 0 mm 2 m/s 754 mmHg 67%
    21:00 +24°C° 0 mm 2 m/s 754 mmHg 69%
    22:00 +21°C° 0 mm 2 m/s 754 mmHg 70%
    23:00 +22°C° 0 mm 1 m/s 754 mmHg 70%

    27 Juillet, Vendredi

    Heure Température Précipitation Vent Pression Humidité
    00:00 +21°C° 0 mm 1 m/s 754 mmHg 70%
    01:00 +21°C° 0 mm 1 m/s 754 mmHg 71%
    02:00 +21°C° 0 mm 1 m/s 754 mmHg 70%
    03:00 +20°C° 0 mm 1 m/s 754 mmHg 70%
    04:00 +20°C° 0 mm 1 m/s 754 mmHg 69%
    05:00 +21°C° 0 mm 1 m/s 755 mmHg 69%
    06:00 +22°C° 0 mm 1 m/s 755 mmHg 69%
    07:00 +23°C° 0 mm 1 m/s 755 mmHg 69%
    08:00 +24°C° 0 mm 1 m/s 755 mmHg 67%
    09:00 +25°C° 0 mm 1 m/s 755 mmHg 65%
    10:00 +27°C° 0 mm 1 m/s 755 mmHg 63%
    11:00 +28°C° 0 mm 2 m/s 755 mmHg 59%
    12:00 +29°C° 0 mm 2 m/s 754 mmHg 55%
    13:00 +30°C° 0 mm 2 m/s 754 mmHg 51%
    14:00 +30°C° 0 mm 2 m/s 754 mmHg 49%
    15:00 +31°C° 0 mm 2 m/s 754 mmHg 46%
    16:00 +31°C° 0 mm 2 m/s 754 mmHg 43%
    17:00 +30°C° 0 mm 2 m/s 754 mmHg 50%
    18:00 +28°C° 0 mm 2 m/s 754 mmHg 56%
    19:00 +27°C° 0 mm 2 m/s 754 mmHg 62%
    20:00 +26°C° 0 mm 1 m/s 754 mmHg 62%
    21:00 +25°C° 0 mm 1 m/s 754 mmHg 62%
    22:00 +24°C° 0 mm 1 m/s 754 mmHg 61%
    23:00 +23°C° 0 mm 1 m/s 754 mmHg 62%
    Voir plus